Flag for Brazil Weather past 2 weeks in Belém, Para, Brazil

Now
86 °F

Partly sunny.


Feels Like: 92 °F
Forecast: 75 / 87 °F
Wind: 12 mph from East

Location: Belem Aeroporto

Current Time: Jul 23, 2014 at 12:42:58 PM

Latest Report: Jul 23, 2014 at 12:00 PM


Visibility: N/A

Pressure: 29.98 "Hg

Humidity: 62%

Dew point: 72 °F

Location of BelémLocation

Historic Weather in Belém — Graph

°F

Belém temperature yesterday

Maximum temperature yesterday: 88 °F (at 12:00 PM)
Minimum temperature yesterday: 75 °F (at 3:00 AM)
Average temperature yesterday: 79 °F

Past Weeks' High & Low Weather Summary

 TemperatureHumidityPressure
High90 °F (Jul 8, 2:00 PM)100% (Jul 9, 7:00 PM)30.04 "Hg (Jul 9, 7:00 PM)
Low39 °F (Jul 12, 7:00 PM)52% (Jul 8, 2:00 PM)29.83 "Hg (Jul 9, 3:00 PM)
Average79 °F82%29.95 "Hg
* Reported Jul 8 11:00 AM — Jul 23 11:00 AM, Belém, Weather by CustomWeather, © 2014

Note: Actual official high and low records may vary slightly from our data, if they occured in-between our weather recording intervals... More about our weather records

Advertising

Belém weather history for previous 24 hours

 ConditionsComfort  
Time TempWeatherWind HumidityBarometerVisibility
11:00 AM
Jul 23
86 °FPartly sunny.12 mph62%30.01 "HgN/A
10:00 AM84 °FBroken clouds.14 mph70%30.01 "HgN/A
9:00 AM81 °FSunny.9 mph79%30.01 "Hg10 mi
8:00 AM75 °FSunny.6 mph94%29.98 "Hg10 mi
7:00 AM75 °FSunny.6 mph89%29.98 "Hg10 mi
6:00 AM73 °FClear.3 mph94%29.95 "Hg10 mi
5:00 AM75 °FClear.3 mph89%29.92 "Hg10 mi
3:00 AM75 °FClear.8 mph89%29.92 "Hg10 mi
2:00 AM75 °FClear.6 mph89%29.95 "Hg10 mi
1:00 AM75 °FClear.8 mph89%29.95 "Hg10 mi
12:00 AM75 °FClear.5 mph89%29.98 "Hg10 mi
11:00 PM
Jul 22
75 °FClear.6 mph89%29.98 "Hg10 mi
10:00 PM77 °FClear.3 mph83%29.98 "Hg10 mi
9:00 PM77 °FPassing clouds.6 mph79%29.95 "HgN/A
2:00 PM88 °FPartly sunny.12 mph55%29.92 "HgN/A
1:00 PM88 °FPartly sunny.8 mph62%29.95 "HgN/A
12:00 PM88 °FPartly sunny.13 mph62%29.98 "HgN/A
Weather by CustomWeather, © 2014

See weather overviewHow to use our weather pages